Powrót do katalogu

STARLINK-31711

AktywnyŁącznośćVLEO
NORAD 59438·PAYLOAD·🇺🇸 United States

Wystrzelony Apr 7, 2024 z Vandenberg Space Force Base

Loading…

Następne Przeloty (najbliższe 24 godziny)

TLE

ŚwieżeSource: CelesTrak SupGP

Epoka: Sep 14, 2026, 21:17 UTC

1 59438C 24065T   26257.88729167 -.00037917  00000+0 -11204-2 0  2571
2 59438  53.1561 119.8701 0001281  89.5896  93.4958 15.34406003    11

Śledź STARLINK-31711 w czasie rzeczywistym z AllMySat

Download on the App Store